DL9LAF-4 Weather Reports


Display with metric or nautical units.
time (UTC)temp
F
wind
direction
speed
MPH
gust
MPH
rain 1hr
in
rain 24hr
in
rain mn
in
humidity
%
barometer
mb
20260902070218 59 22 0.0 0.0 0.00 0.00 0.00 88 994.4
20260902065218 59 45 182.0 0.0 0.00 0.00 0.00 89 994.4
20260902064218 58 0 0.0 0.0 0.00 0.00 0.00 89 994.5
20260902063218 58 22 0.0 0.0 0.00 0.00 0.00 89 994.5
20260902062218 58 22 0.0 0.0 0.00 0.00 0.00 89 994.5
20260902061218 57 22 0.0 0.0 0.00 0.00 0.00 90 994.4
20260902060218 57 0 0.0 0.0 0.00 0.00 0.00 90 994.4
20260902055218 57 22 0.0 0.0 0.00 0.00 0.00 90 994.4
20260902054218 57 22 0.0 0.0 0.00 0.00 0.00 90 994.4
20260902053218 57 22 0.0 0.0 0.00 0.00 0.00 90 994.4
20260902052218 57 22 0.0 0.0 0.00 0.00 0.00 90 994.7
20260902051218 57 0 0.0 0.0 0.00 0.00 0.00 90 994.7
20260902050218 57 22 0.0 0.0 0.00 0.00 0.00 90 994.5
20260902045218 57 45 0.0 0.0 0.00 0.00 0.00 90 994.5
20260902044218 57 22 0.0 0.0 0.00 0.00 0.00 90 994.5
20260902043218 57 22 0.0 0.0 0.00 0.00 0.00 90 994.5
20260902042218 57 22 0.0 0.0 0.00 0.00 0.00 90 994.5
20260902041218 57 45 0.0 0.0 0.00 0.00 0.00 90 994.5
20260902040218 57 0 0.0 0.0 0.00 0.00 0.00 90 994.7
20260902035218 57 22 0.0 0.0 0.00 0.00 0.00 90 994.7
20260902034218 57 315 0.0 0.0 0.00 0.00 0.00 90 994.7
20260902033218 57 22 0.0 0.0 0.00 0.00 0.00 90 994.7
20260902032218 57 22 0.0 0.0 0.00 0.00 0.00 90 994.7
20260902031218 57 0 0.0 0.0 0.00 0.00 0.00 90 994.7
20260902030218 57 22 0.0 0.0 0.00 0.00 0.00 89 994.7
20260902025218 57 337 0.0 0.0 0.00 0.00 0.00 89 994.7
20260902024218 57 315 0.0 0.0 0.00 0.00 0.00 89 994.7
20260902023218 57 315 0.0 0.0 0.00 0.00 0.00 89 994.9
20260902022218 57 337 0.0 0.0 0.00 0.00 0.00 89 995.0
20260902021218 57 315 0.0 0.0 0.00 0.00 0.00 89 994.9
20260902020218 57 22 0.0 0.0 0.00 0.00 0.00 89 995.0
20260902015218 57 22 0.0 0.0 0.00 0.00 0.00 89 994.7
20260902013218 57 0 0.0 0.0 0.00 0.00 0.00 88 994.5
20260902012218 57 315 0.0 0.0 0.00 0.00 0.00 88 994.7
20260902011218 57 315 0.0 0.0 0.00 0.00 0.00 88 994.7
20260902010218 57 292 0.0 0.0 0.00 0.00 0.00 87 994.5
20260902005218 57 292 0.0 0.0 0.00 0.00 0.00 88 994.7
20260902004218 57 315 0.0 0.0 0.00 0.00 0.00 87 994.7
20260902003218 57 292 0.0 0.0 0.00 0.00 0.00 87 994.5
20260902002218 57 315 0.0 0.0 0.00 0.00 0.00 87 994.5
20260902001218 57 315 0.0 0.0 0.00 0.00 0.00 86 994.5
20260902000219 57 0 183.0 0.0 0.00 0.00 0.00 86 994.5
20260901235218 57 315 0.0 0.0 0.00 0.00 0.00 86 994.7
20260901234218 58 315 0.0 0.0 0.00 0.00 0.00 86 994.5
20260901233218 57 292 0.0 0.0 0.00 0.00 0.00 86 994.7
20260901232218 57 315 0.0 0.0 0.00 0.00 0.00 85 994.7
20260901231218 58 292 0.0 0.0 0.00 0.00 0.00 85 995.0
20260901230218 58 292 0.0 0.0 0.00 0.00 0.00 84 995.0
20260901225218 58 292 0.0 0.0 0.00 0.00 0.00 84 995.0
20260901224218 58 292 0.0 0.0 0.00 0.00 0.00 84 995.0
20260901223218 58 292 0.0 0.0 0.00 0.00 0.00 83 995.0
20260901222218 59 292 0.0 0.0 0.00 0.00 0.00 83 995.0
20260901221218 59 292 0.0 0.0 0.00 0.00 0.00 84 995.2
20260901220218 59 292 0.0 0.0 0.00 0.00 0.00 84 995.5
20260901215218 60 315 0.0 0.0 0.00 0.00 0.00 84 995.4
20260901214218 60 292 0.0 0.0 0.00 0.00 0.00 84 995.2
20260901213218 60 292 0.0 0.0 0.00 0.00 0.00 84 995.2
20260901212218 59 292 0.0 0.0 0.00 0.00 0.00 85 995.0
20260901211218 59 0 183.0 0.0 0.00 0.00 0.00 84 995.0
20260901210218 59 292 0.0 0.0 0.00 0.00 0.00 84 995.0
20260901205218 59 292 0.0 0.0 0.00 0.00 0.00 84 995.0
20260901204218 59 292 0.0 0.0 0.00 0.00 0.00 84 995.0
20260901203218 60 292 0.0 0.0 0.00 0.00 0.00 84 995.0
20260901202218 60 292 0.0 0.0 0.00 0.00 0.00 84 995.0
20260901201218 60 315 0.0 0.0 0.00 0.00 0.00 84 995.2
20260901200218 59 292 0.0 0.0 0.00 0.00 0.00 84 995.0
20260901195218 59 292 0.0 0.0 0.00 0.00 0.00 84 995.0
20260901194218 59 292 0.0 0.0 0.00 0.00 0.00 84 995.0
20260901193218 60 292 0.0 0.0 0.00 0.00 0.00 84 995.0
20260901192218 60 292 0.0 0.0 0.00 0.00 0.00 85 995.0
20260901191218 60 292 0.0 0.0 0.00 0.00 0.00 85 994.7
20260901190218 60 292 0.0 0.0 0.00 0.00 0.00 85 994.7
20260901185218 60 315 0.0 0.0 0.00 0.00 0.00 86 994.7
20260901184218 59 292 0.0 0.0 0.00 0.00 0.00 85 994.5
20260901183218 59 292 0.0 0.0 0.00 0.00 0.00 84 994.7
20260901182218 60 292 0.0 0.0 0.00 0.00 0.00 83 994.7
20260901181218 61 292 0.0 0.0 0.00 0.00 0.00 81 994.5
20260901180218 61 292 0.0 0.0 0.00 0.00 0.00 81 994.2
20260901175218 62 292 0.0 0.0 0.00 0.00 0.00 81 994.2
20260901174218 62 292 0.0 0.0 0.00 0.00 0.00 80 994.0
20260901173218 62 292 0.0 0.0 0.00 0.00 0.00 80 994.0
20260901172218 63 292 0.0 0.0 0.00 0.00 0.00 78 993.9
20260901171218 64 292 0.0 0.0 0.00 0.00 0.00 78 993.9
20260901170218 64 292 0.0 0.0 0.00 0.00 0.00 76 993.9
20260901165218 65 292 0.0 0.0 0.00 0.00 0.00 76 994.0
20260901164218 65 315 0.0 0.0 0.00 0.00 0.00 76 994.0
20260901163218 65 292 0.0 0.0 0.00 0.00 0.00 75 994.0
20260901162218 64 292 0.0 0.0 0.00 0.00 0.00 74 994.0
20260901161218 65 292 0.0 0.0 0.00 0.00 0.00 73 994.0
20260901160218 66 292 0.0 0.0 0.00 0.00 0.00 70 993.7
20260901155218 66 292 0.0 0.0 0.00 0.00 0.00 69 993.7
20260901154218 67 292 0.0 0.0 0.00 0.00 0.00 68 993.5
20260901153218 68 315 0.0 0.0 0.00 0.00 0.00 68 993.5
20260901152218 68 292 0.0 0.0 0.00 0.00 0.00 67 993.5
20260901151218 69 292 0.0 0.0 0.00 0.00 0.00 66 993.5
20260901150218 69 292 0.0 0.0 0.00 0.00 0.00 67 993.4
20260901145218 68 292 0.0 0.0 0.00 0.00 0.00 67 993.4
20260901144218 68 292 0.0 0.0 0.00 0.00 0.00 67 993.4
20260901143218 68 292 0.0 0.0 0.00 0.00 0.00 68 993.4
20260901142218 68 292 0.0 0.0 0.00 0.00 0.00 68 993.4
20260901141218 68 292 0.0 0.0 0.00 0.00 0.00 69 993.2
20260901140218 69 292 0.0 0.0 0.00 0.00 0.00 72 993.4
20260901135218 68 292 0.0 0.0 0.00 0.00 0.00 77 993.2
20260901134218 68 292 0.0 0.0 0.00 0.00 0.00 77 993.2
20260901133218 66 292 0.0 0.0 0.00 0.00 0.00 78 993.2
20260901132218 66 292 0.0 0.0 0.00 0.00 0.00 77 993.2
20260901131218 66 292 0.0 0.0 0.00 0.00 0.00 78 993.2
20260901130218 66 292 0.0 0.0 0.00 0.00 0.00 77 993.2
20260901125218 66 292 0.0 0.0 0.00 0.00 0.00 77 993.2
20260901124218 66 292 0.0 0.0 0.00 0.00 0.00 78 993.2
20260901123218 65 292 0.0 0.0 0.00 0.00 0.00 78 993.0
20260901122218 66 315 0.0 0.0 0.00 0.00 0.00 78 993.2
20260901121218 66 292 0.0 0.0 0.00 0.00 0.00 79 993.2
20260901120218 67 292 0.0 0.0 0.00 0.00 0.00 78 993.0
20260901115218 67 337 0.0 0.0 0.00 0.00 0.00 80 992.7
20260901114218 66 292 0.0 0.0 0.00 0.00 0.00 78 992.7
20260901113218 67 292 0.0 0.0 0.00 0.00 0.00 79 992.7
20260901112218 67 292 0.0 0.0 0.00 0.00 0.00 80 992.7
20260901111218 66 315 0.0 0.0 0.00 0.00 0.00 81 992.5
20260901110218 66 292 0.0 0.0 0.00 0.00 0.00 82 992.5
20260901105218 66 292 0.0 0.0 0.00 0.00 0.00 83 992.4
20260901104218 65 292 0.0 0.0 0.00 0.00 0.00 83 992.5
20260901103218 65 292 0.0 0.0 0.00 0.00 0.00 83 992.5
20260901102218 64 292 0.0 0.0 0.00 0.00 0.00 81 992.5
20260901101218 65 292 0.0 0.0 0.00 0.00 0.00 81 992.4
20260901100218 66 315 0.0 0.0 0.00 0.00 0.00 80 992.0
20260901095218 66 315 0.0 0.0 0.00 0.00 0.00 80 992.0
20260901094218 67 292 0.0 0.0 0.00 0.00 0.00 80 992.0
20260901093218 67 292 0.0 0.0 0.00 0.00 0.00 81 992.0
20260901092218 67 292 0.0 0.0 0.00 0.00 0.00 81 992.0
20260901091218 68 292 0.0 0.0 0.00 0.00 0.00 81 991.9
20260901090218 67 292 0.0 0.0 0.00 0.00 0.00 82 991.9
20260901085218 67 337 0.0 0.0 0.00 0.00 0.00 82 991.7
20260901084218 66 292 0.0 0.0 0.00 0.00 0.00 83 991.7
20260901083218 66 292 0.0 0.0 0.00 0.00 0.00 83 991.5
20260901082218 66 292 0.0 0.0 0.00 0.00 0.00 84 991.4
20260901081218 66 292 0.0 0.0 0.00 0.00 0.00 85 991.4
20260901080218 65 292 0.0 0.0 0.00 0.00 0.00 85 991.2
20260901075218 64 292 0.0 0.0 0.00 0.00 0.00 85 991.2
20260901074218 64 292 0.0 0.0 0.00 0.00 0.00 86 991.2
20260901073218 64 292 0.0 0.0 0.00 0.00 0.00 86 991.0
20260901072218 64 292 0.0 0.0 0.00 0.00 0.00 86 991.0
20260901071218 63 292 0.0 0.0 0.00 0.00 0.00 86 991.0